GFSNGP_prec_cthk_189.txt.gz
RH
69 63 57 52 54 56 62 66 65 48 49 47 34 29 26 30 38 36 43 38 38 52 42 38 38 38 41 53 49 57 67 81 96 97 98 98 99 97 96 92 92 88 85 87
74 57 52 48 46 44 41 39 44 39 38 39 33 28 32 36 37 34 41 42 41 41 41 42 42 45 43 54 50 58 66 82 98 98 98 98 98 98 89 95 94 92 88 90
60 52 49 52 44 42 39 39 40 44 37 30 31 32 35 34 32 37 43 50 49 52 59 55 51 56 56 59 58 59 69 81 95 98 98 98 98 94 94 98 96 97 97 95
63 53 61 38 36 34 35 31 32 29 30 32 35 34 34 31 40 48 50 50 54 73 76 76 66 63 64 66 61 60 72 84 95 98 98 98 98 95 97 97 97 97 98 97
67 58 41 35 36 36 34 30 34 33 29 37 39 25 24 40 43 36 51 49 74 77 83 84 74 69 69 69 65 64 66 84 97 92 98 98 96 97 98 97 97 97 98 97
63 59 49 31 34 32 33 31 29 36 39 28 25 29 31 34 26 36 45 56 79 75 80 84 76 74 75 72 68 67 65 87 98 91 97 97 98 98 96 98 97 97 97 98
62 57 43 37 35 42 45 34 41 40 29 26 29 35 30 26 28 36 41 59 79 72 78 86 81 79 82 76 71 66 64 80 97 96 97 98 97 98 97 98 98 97 97 97
60 63 58 40 37 36 29 32 32 36 34 36 34 31 34 32 33 40 41 66 82 67 74 83 86 78 74 71 69 65 63 77 92 95 98 98 96 94 96 98 97 98 98 97
47 43 40 37 31 34 42 38 38 39 41 46 39 43 40 36 37 42 53 76 78 67 71 85 86 83 78 73 70 64 66 77 87 97 99 95 99 96 96 95 95 97 98 95
40 30 40 29 28 30 32 31 32 41 42 43 42 46 50 37 41 48 62 86 68 59 70 80 87 92 87 81 72 64 64 73 89 94 98 98 98 98 96 94 95 96 93 90
34 35 36 31 32 34 35 36 37 40 42 45 48 49 54 43 40 49 73 77 57 51 70 86 92 98 98 95 82 76 77 79 86 95 98 98 97 98 98 98 98 97 97 91
45 42 39 35 37 44 50 53 53 52 54 54 54 53 54 43 44 63 85 56 50 49 63 89 91 93 98 98 98 90 83 88 89 98 98 98 97 98 99 96 93 90 86 83
34 38 34 35 52 65 63 59 57 58 56 56 55 58 52 43 55 84 64 52 51 45 58 69 85 84 92 98 98 98 97 97 97 97 98 98 98 98 96 95 91 86 86 85
40 41 50 67 62 64 66 65 62 62 58 55 59 56 41 51 81 76 60 54 49 47 56 61 67 71 74 76 84 91 95 96 97 98 98 94 97 97 96 97 96 92 90 89
61 64 59 56 55 53 58 67 68 61 60 65 58 39 56 86 91 74 67 53 52 49 52 54 58 62 65 68 70 72 75 82 89 94 94 94 94 95 95 95 94 92 91 92
60 48 52 55 64 67 65 66 67 60 63 57 43 59 95 97 81 64 60 56 54 55 55 55 57 59 59 61 64 68 71 75 79 82 87 89 93 94 96 95 97 95 95 94
68 70 75 65 61 63 69 62 56 59 55 55 63 82 88 88 74 61 61 57 55 53 50 49 51 56 58 57 56 57 61 68 75 82 86 90 92 94 96 93 93 92 92 93
73 82 78 60 58 60 58 56 73 80 89 94 86 84 81 78 69 63 59 56 52 50 48 46 46 49 54 57 55 55 59 64 72 82 88 93 93 90 89 91 90 91 95 94
77 83 71 63 71 79 88 95 95 93 90 87 81 75 71 61 57 54 51 48 46 45 43 45 45 46 52 55 55 56 58 62 69 74 84 90 94 94 95 95 94 94 95 96
81 88 87 84 92 94 93 92 88 82 79 74 68 64 58 51 45 44 44 45 43 41 43 43 44 48 52 54 56 59 61 66 68 72 81 86 89 93 95 94 94 94 96 98
71 85 83 81 82 79 74 69 61 54 50 43 39 39 39 38 40 40 41 41 42 46 47 47 47 50 53 55 57 60 65 69 74 78 83 87 90 91 90 90 91 91 94 94
62 61 66 56 55 48 45 45 44 41 43 44 46 46 46 46 45 45 44 44 44 46 48 48 49 52 54 57 61 64 68 76 80 84 87 90 92 91 91 90 90 91 92 93
58 56 56 53 53 54 52 50 50 50 48 49 48 47 46 44 45 46 48 50 53 54 56 58 59 60 63 67 70 73 77 83 89 96 97 94 94 95 94 95 96 95 95 94
64 63 62 63 60 56 55 51 48 45 43 43 45 46 48 48 50 50 53 53 55 60 62 65 70 73 83 90 92 91 92 95 97 97 97 97 97 97 96 95 94 93 90 87
67 62 56 54 54 53 53 53 51 52 52 50 49 51 52 53 56 59 61 61 66 68 73 77 80 85 93 97 97 98 98 97 96 94 92 90 87 85 83 82 81 81 79 78
64 60 58 55 55 54 55 56 55 53 52 52 55 59 64 69 72 72 73 77 78 80 82 85 89 92 95 96 97 95 91 86 83 81 80 79 78 77 76 75 74 74 73 71
68 67 63 60 58 59 58 56 55 55 56 59 65 69 73 77 82 82 82 84 83 83 84 88 92 94 93 88 81 79 78 77 75 73 70 70 70 69 68 68 68 67 65 64

GFSNGP_prec_cthk_192.txt.gz
RH
96 87 79 74 71 74 78 75 72 56 48 40 42 43 40 31 31 31 27 24 28 32 33 27 30 41 44 50 46 38 40 37 44 53 69 77 91 97 97 91 94 99 97 96
97 82 74 69 64 64 63 60 63 58 54 46 42 36 31 31 33 31 29 25 32 30 26 29 46 49 53 61 59 50 48 50 55 66 70 85 96 97 96 94 98 99 93 98
93 85 75 71 59 54 49 45 44 43 38 39 36 29 28 29 31 28 26 30 26 23 28 40 52 56 61 64 63 56 56 57 65 70 77 83 96 98 98 97 95 98 99 97
79 68 81 58 50 48 48 44 40 35 34 29 26 23 25 31 27 30 28 21 18 23 28 46 54 58 64 69 72 60 60 63 68 72 75 95 97 98 97 97 98 97 95 97
84 74 61 54 48 43 40 36 33 26 25 26 25 26 26 30 34 33 27 19 21 25 37 56 58 61 64 75 70 64 66 65 68 69 85 98 98 98 97 97 97 96 95 98
79 77 66 51 43 40 35 40 30 29 25 25 28 28 22 27 29 26 24 27 26 26 47 71 60 63 68 76 76 71 65 65 65 69 92 98 98 98 97 97 97 97 97 97
79 70 53 45 39 38 40 37 36 33 32 32 30 32 28 25 26 32 36 32 29 36 61 74 64 61 74 77 74 67 64 63 61 71 94 98 98 97 97 97 98 97 96 97
76 71 65 41 39 38 34 34 30 32 33 34 32 34 35 31 30 32 36 32 32 55 72 68 58 70 80 84 75 71 66 62 61 71 90 98 98 97 96 97 97 97 97 96
52 52 42 36 34 34 30 25 30 32 35 38 35 33 33 33 33 34 38 35 51 64 78 55 55 84 90 94 86 74 67 62 61 69 81 98 97 97 97 96 94 97 97 96
50 46 41 36 39 36 27 26 31 33 32 38 34 33 35 35 38 42 45 47 51 85 59 49 67 94 95 97 98 85 71 69 66 68 76 96 96 98 98 96 98 98 96 96
40 43 37 34 36 32 29 31 32 32 34 36 39 38 41 44 46 46 49 44 78 69 52 55 76 98 95 97 98 98 80 72 69 71 76 91 97 98 98 98 98 96 96 96
40 44 47 46 46 45 37 33 33 36 38 41 44 43 50 48 49 50 43 60 76 55 51 57 75 94 96 97 97 98 97 82 72 72 82 96 97 97 98 96 96 98 98 98
39 40 40 36 35 35 33 36 45 51 52 49 53 55 48 48 51 41 52 85 63 53 48 61 67 71 75 83 94 97 97 98 90 93 92 97 98 97 97 97 97 98 98 96
37 37 36 37 39 42 47 51 53 56 58 59 56 53 51 52 45 41 80 78 62 54 53 56 63 63 67 71 74 76 86 91 93 96 97 97 98 98 96 94 98 96 94 93
38 38 38 45 42 41 43 45 47 51 60 64 68 66 61 48 45 80 87 70 58 55 54 50 60 62 59 58 62 65 68 72 78 84 87 92 97 98 96 97 98 98 96 91
42 49 54 53 53 60 65 74 80 85 80 72 71 65 51 68 94 91 66 59 59 54 50 49 49 54 55 54 53 54 57 60 65 68 70 74 81 88 94 96 97 97 97 96
53 57 61 66 71 56 54 61 58 50 49 53 53 50 67 97 96 83 68 62 58 53 50 49 48 49 52 55 53 52 53 54 55 60 67 75 80 82 86 90 95 96 97 97
60 64 68 70 60 56 54 52 50 58 73 69 63 73 88 92 86 77 66 61 55 52 48 45 46 44 49 54 57 56 56 57 56 57 62 68 78 88 90 89 91 93 94 94
65 67 74 68 73 75 74 73 80 90 96 97 94 91 86 80 78 72 63 52 45 43 42 43 42 43 45 52 59 62 61 62 63 63 64 67 72 80 86 90 91 92 93 93
72 72 75 65 78 83 86 88 88 88 87 85 82 79 73 65 58 51 47 44 44 44 43 44 45 47 48 51 54 57 63 66 68 68 68 71 71 76 80 85 89 90 91 91
74 72 69 70 74 74 74 72 70 68 65 54 48 47 45 41 41 42 42 43 43 46 46 47 49 48 46 47 50 53 57 63 67 71 72 74 79 82 83 84 86 87 86 86
56 67 62 58 53 49 43 40 39 40 43 45 45 45 45 45 46 46 47 48 49 50 51 50 49 49 51 52 53 56 60 65 68 72 76 80 83 84 85 89 90 90 89 89
52 55 53 56 56 54 50 46 48 51 51 51 51 50 50 50 50 50 51 51 50 51 51 52 55 55 58 60 61 65 70 75 81 84 85 87 92 94 94 93 93 93 93 93
57 55 57 55 57 60 60 60 56 50 47 46 47 50 51 49 48 47 48 50 52 53 54 57 59 63 68 71 70 76 88 96 97 97 98 98 98 97 96 94 93 90 88 85
62 62 63 64 61 56 52 51 51 51 53 49 46 47 50 52 53 55 58 59 60 62 64 67 70 73 76 79 82 84 93 96 97 96 94 92 88 85 84 82 81 80 78 77
62 67 65 59 55 51 53 54 55 54 51 49 50 54 57 59 62 67 71 70 71 74 76 79 80 82 84 85 86 85 82 83 83 82 81 80 78 75 74 72 72 71 69 68
72 71 66 61 59 56 57 58 59 58 54 54 58 60 64 68 72 77 80 82 83 84 85 85 83 83 83 79 74 74 76 75 74 74 73 71 70 69 68 66 65 62 60 58

GFSNGP_prec_cthk_198.txt.gz
RH
85 80 74 70 69 71 69 60 76 65 71 68 71 69 68 72 70 64 60 55 50 45 38 31 28 22 14 10 11 16 18 24 25 24 32 39 48 51 49 50 67 83 91 91
94 95 88 80 73 75 72 70 70 72 77 71 74 75 76 73 65 60 56 50 45 36 31 29 23 15 13 14 15 19 23 28 27 31 41 48 54 50 52 67 83 91 91 97
96 97 98 97 75 71 71 73 73 76 74 75 75 81 76 66 60 54 50 42 35 30 28 22 14 13 16 17 19 22 29 28 32 41 49 51 50 53 64 79 89 97 97 97
97 97 97 71 70 70 71 79 77 74 74 76 77 67 63 59 54 46 39 34 30 26 20 13 13 16 20 20 22 30 28 30 45 53 57 56 53 57 72 86 95 97 97 97
97 94 84 68 64 73 76 77 79 80 79 70 65 63 58 50 43 38 33 28 25 20 15 14 17 21 23 22 29 30 29 47 56 60 61 58 56 63 76 90 95 97 97 97
96 96 91 70 62 73 76 82 72 70 65 61 58 56 49 42 37 32 27 24 20 15 16 17 21 24 23 24 31 32 51 62 69 69 67 59 59 70 86 95 97 97 97 97
97 97 91 70 63 67 80 65 60 57 56 55 49 45 39 38 33 27 23 19 17 19 20 22 24 24 23 31 32 46 66 74 75 74 73 61 64 78 88 96 97 97 97 97
97 96 93 70 63 63 64 63 60 56 52 49 44 38 34 29 23 20 19 19 20 22 24 26 27 24 29 36 40 67 76 80 77 72 69 65 71 82 94 97 97 96 96 96
88 88 76 68 68 67 64 58 51 46 43 41 34 30 26 22 22 22 22 22 24 26 28 29 29 29 38 40 57 80 84 81 80 76 73 69 75 82 94 97 97 97 95 96
88 86 80 72 64 61 55 52 49 43 36 32 29 27 24 23 23 24 25 29 31 31 30 29 28 41 41 52 67 82 87 86 86 85 76 74 76 84 92 97 97 97 96 97
88 82 73 66 61 55 51 47 42 38 35 33 28 26 25 25 25 27 30 31 32 32 31 28 38 40 44 52 55 68 87 93 94 89 82 77 79 84 92 96 97 97 97 97
82 72 69 65 58 51 47 43 39 37 34 30 28 29 29 29 29 30 34 36 35 34 31 32 44 37 51 55 60 63 79 93 97 97 89 82 84 87 96 97 97 97 97 97
71 66 58 55 50 45 40 38 36 34 31 30 31 32 33 32 32 37 41 40 39 33 33 42 43 42 51 52 53 58 69 86 94 97 91 90 94 97 97 97 97 96 97 97
61 57 57 49 43 40 36 34 32 32 32 30 32 33 36 38 41 45 48 48 44 38 34 55 43 43 47 50 47 50 56 64 75 90 93 95 97 97 97 97 97 96 96 97
55 48 45 44 40 36 34 32 30 27 32 34 36 40 43 48 53 55 52 54 45 42 59 54 45 43 44 46 46 47 48 51 58 65 72 82 87 92 94 96 98 97 95 95
50 48 44 39 39 37 31 28 36 42 44 45 47 48 52 58 59 55 54 47 54 60 68 51 46 44 42 45 47 48 48 48 50 53 56 61 65 69 75 82 90 95 96 97
47 47 44 40 35 34 38 43 47 44 40 41 43 40 39 41 41 45 50 69 69 79 59 51 45 41 41 43 47 49 49 49 49 50 51 52 55 58 62 65 69 76 84 89
49 46 40 36 40 44 49 50 45 42 45 40 46 52 51 52 52 63 88 93 81 65 57 50 38 35 38 41 46 48 48 48 51 50 49 50 50 53 58 61 64 67 70 77
48 47 46 49 52 54 51 52 54 57 54 60 67 64 59 61 66 87 96 83 70 63 54 42 33 35 39 42 45 47 49 50 53 54 54 53 54 55 57 61 64 66 68 71
45 49 53 55 55 52 56 61 65 65 74 74 73 70 78 87 91 91 86 77 64 48 44 38 39 40 42 43 44 46 50 52 54 56 57 58 59 61 66 67 69 70 71 74
56 58 59 57 56 59 64 65 70 73 72 73 78 79 80 83 82 76 68 55 47 42 41 43 44 46 46 46 48 50 51 53 54 55 58 64 68 73 76 80 83 84 82 80
59 58 60 61 65 67 65 64 61 59 59 57 57 53 50 46 42 41 41 42 45 47 48 50 49 49 49 51 53 54 54 56 58 60 63 68 74 82 88 94 97 97 96 96
63 63 60 62 57 54 52 48 43 38 37 41 44 44 45 46 47 48 51 51 51 50 51 51 51 50 52 53 54 55 58 60 63 67 71 73 79 92 97 97 96 92 95 95
59 64 59 56 56 53 45 43 48 54 54 50 52 56 58 59 53 49 49 48 49 50 51 51 53 55 57 61 64 67 70 72 75 75 75 78 84 94 96 94 93 91 88 85
59 59 62 60 56 52 54 58 59 63 57 57 51 47 46 48 50 50 50 52 55 56 57 58 60 64 67 73 78 82 83 83 83 83 82 80 79 79 78 78 77 75 73 72
64 62 62 60 61 63 64 65 64 54 53 51 51 49 50 51 52 53 55 58 59 61 65 68 73 78 80 84 86 82 76 75 75 74 72 72 71 71 70 70 69 67 65 63
70 66 66 67 68 70 67 66 59 53 56 57 55 52 54 53 54 57 60 63 66 70 75 78 82 84 86 84 75 73 72 71 70 69 68 68 67 66 64 61 58 55 54 51

GFSNGP_prec_cthk_204.txt.gz
RH
73 72 69 63 64 59 65 56 69 45 56 53 51 48 50 52 55 57 60 61 63 62 61 61 61 59 57 55 53 47 42 35 29 25 22 21 21 24 27 29 33 39 42 47
88 81 76 77 71 64 65 64 72 63 60 56 58 56 56 59 60 62 64 66 66 64 63 64 64 58 58 55 49 44 38 31 26 23 20 19 23 27 30 32 37 41 47 50
93 87 86 94 63 74 70 68 64 72 54 61 63 63 67 68 69 70 68 67 67 68 66 66 67 66 59 53 48 40 33 27 23 19 18 21 26 30 34 37 41 49 50 60
98 98 98 69 73 68 74 73 70 68 70 69 70 74 74 73 72 74 74 70 70 71 70 71 67 59 55 48 42 35 27 22 19 20 21 26 29 34 39 45 50 52 57 71
98 97 98 80 71 76 77 66 68 68 73 76 82 81 79 73 76 75 76 78 81 73 72 68 63 55 49 42 34 26 23 21 21 22 26 29 35 40 44 51 57 57 66 75
98 98 96 69 69 73 82 86 76 76 77 79 82 84 69 75 78 79 80 81 79 74 74 62 57 50 42 34 27 23 21 21 24 29 31 34 42 45 51 59 62 64 78 79
96 97 91 72 72 79 93 65 65 67 71 76 74 64 76 79 81 84 84 84 85 67 59 56 49 41 35 29 24 22 22 25 28 33 36 43 48 52 61 66 66 75 80 84
97 98 88 66 74 78 70 64 65 65 66 69 71 71 75 79 80 87 87 68 62 58 54 47 41 34 30 24 19 22 25 28 34 39 45 49 52 63 71 71 75 84 86 87
74 71 62 60 61 67 66 65 66 67 67 69 73 76 79 82 84 71 64 59 55 52 46 39 34 29 25 22 20 23 27 31 38 44 52 57 63 71 74 76 82 91 90 88
76 73 69 66 69 70 65 64 67 70 73 73 72 77 80 73 63 61 57 54 50 45 39 33 28 25 22 21 22 25 31 34 42 51 56 65 70 77 76 78 93 92 91 90
93 82 74 69 68 69 66 66 69 72 72 68 67 68 62 58 56 55 52 48 45 39 33 28 27 26 25 24 25 26 34 33 42 54 68 75 77 79 81 88 93 94 93 93
80 75 73 72 70 71 71 73 71 70 64 62 58 54 52 51 50 50 47 42 38 35 32 29 29 30 29 28 29 29 34 33 40 55 80 85 87 90 89 92 94 96 96 95
67 67 71 73 73 81 81 73 69 66 61 58 57 55 54 53 50 46 42 40 36 32 32 33 34 34 32 31 32 32 35 33 39 46 79 86 88 91 95 93 95 96 97 96
66 73 82 86 87 84 79 74 65 62 60 59 58 56 52 48 43 42 40 37 35 37 38 38 39 37 36 37 36 37 38 37 38 43 48 61 79 83 81 82 88 92 93 93
81 86 89 91 85 77 71 68 68 68 67 63 58 53 48 42 37 38 38 37 40 43 43 41 42 40 41 44 43 42 39 39 39 39 39 40 47 56 63 68 71 69 70 72
89 87 80 76 76 74 73 71 71 69 62 58 53 45 39 41 43 41 40 42 44 45 46 43 47 47 49 51 49 42 39 40 40 38 38 38 42 45 50 55 58 61 64 65
92 82 79 80 79 77 74 69 63 60 58 52 43 42 43 39 38 39 39 39 44 44 45 52 56 55 55 54 47 43 42 43 41 39 39 40 42 44 47 50 53 55 57 59
83 80 78 75 73 72 70 66 60 54 46 43 43 40 34 33 33 35 33 35 38 46 58 63 64 65 61 48 44 41 42 45 43 42 42 44 46 46 47 49 51 52 55 57
80 78 76 75 72 68 65 62 54 49 47 46 38 29 29 36 42 45 44 48 60 69 67 71 72 63 49 45 43 42 44 45 44 44 44 47 49 49 49 51 54 55 58 61
80 78 75 70 65 59 54 51 52 52 47 40 35 39 48 53 50 45 46 64 80 75 78 72 61 51 44 42 43 44 44 44 43 45 48 51 53 53 55 58 58 61 66 67
76 74 71 66 61 59 57 56 55 52 48 46 45 53 56 46 47 55 73 80 76 74 68 57 49 45 43 44 44 45 45 44 46 48 50 53 55 56 56 59 61 66 70 73
71 66 64 62 61 60 60 59 55 53 53 51 53 57 59 64 68 77 79 81 75 60 49 46 45 44 45 44 46 47 47 48 50 52 55 56 56 57 58 62 66 70 75 82
65 59 58 60 59 59 57 56 57 57 53 50 53 55 58 63 65 65 66 64 58 53 51 51 52 52 52 52 52 51 52 53 55 57 58 59 61 63 65 69 72 77 82 91
60 58 57 63 62 58 57 55 56 55 55 53 51 51 50 46 44 43 43 46 50 52 53 53 52 51 49 48 48 50 52 57 61 64 67 70 73 75 76 78 78 75 73 72
66 61 62 60 62 64 60 58 55 48 46 48 45 45 48 51 52 54 57 60 57 52 49 47 47 48 51 53 55 59 63 65 71 75 78 78 77 74 72 70 68 66 65 65
57 67 67 59 60 59 60 60 54 51 47 47 49 55 57 58 56 53 51 50 49 49 48 48 51 54 58 61 63 66 70 70 71 69 68 67 65 64 63 61 59 57 55 54
63 64 66 68 65 62 59 57 55 52 54 57 56 57 57 51 50 50 51 51 49 49 50 53 56 60 63 66 69 69 68 68 65 64 63 62 60 59 58 56 55 55 55 54